FENGYUN 1C DEB

Satellite information

Favourite Embed

Satellite Type and Status

DEBRISIN ORBIT

Key statistics

Satellite FENGYUN 1C DEB at a glance.

Uptime

9714

Days in orbit

Revolutions

≈ 14.6

Per day

Orbit

SSO

Sun Synchronous Orbit

Inclination

99.1

Latest

Satellite identification and parameters

Extended collection of information and parameters for FENGYUN 1C DEB.

Object identification

Identified? True

Debris? True

Object name: FENGYUN 1C DEB

International designator: 1999-025DMZ

Object number (NORAD): 35169

Object ID (CCSDS): 35169

Country: PEOPLES REPUBLIC OF CHINA (PRC)

Current information (Y/N): Y

RCS size: SMALL

Orbital parameters

Period: 98.724 minutes

Inclination: 99.1294 deg

SMA: 7075.819 km

Apoapsis: 805.592 km

Periapsis: 589.777 km

RAAN: 222.329 deg

Eccentricy: 0.01525013

Argument of periapsis: 129.6073 deg

Mean anomaly: 231.8702 deg

Mean motion: 14.58604827 rev/day

Mean motion (dot): 0.00005168 rev/day2

B* drag term: 0.00095565714 1/REarth

Two-line elements (TLE)

Creation date: Dec. 6, 2025, 6 a.m.

Reference frame: TEME

Reference center: EARTH

Epoch: Dec. 5, 2025, 11:24 a.m. UTC

TLE line 0: 0 FENGYUN 1C DEB

TLE line 1: 1 35169U 99025DMZ 25339.47556092 .00005168 00000-0 95566-3 0 9993

TLE line 2: 2 35169 99.1294 222.3290 0152501 129.6073 231.8702 14.58604827656748

Live tracking on map

Real-time ground track for satellite FENGYUN 1C DEB.

In-orbit conjunctions

A list of the most updated potential collisions computed for object FENGYUN 1C DEB.

Target Orbit TCA Probability of collision Miss distance Type
CZ-6A DEB LEO 2025-02-27 18:56:06 0.0001464647 341.0 (m) DEBRIS
ELECTRON KICK STAGE R/B SSO 2025-01-30 06:09:05 0.0002003847 355.0 (m) ROCKET BODY
CZ-6A DEB LEO 2024-10-19 15:03:11 0.0001464748 207.0 (m) DEBRIS
FENGYUN 1C DEB SSO 2024-09-28 19:41:30 0.0001544975 713.0 (m) DEBRIS

Associated space launch

Chinese polar orbiting meteorological satellite

FENGYUN 1C DEB was lifted into orbit during the mission ‘Long March 4B | Feng Yun 1C’, on board a Long March 4B space rocket.

The launch took place on May 10, 1999, 1:33 a.m. from Launch Complex 7.

For more information about the launch, click the button.

Launch to space Long March 4B | Feng Yun 1C
Long March 4B | Feng Yun 1C

Agency: N/A

Status: Launch Successful

Launch date: May 10, 1999, 1:33 a.m. UTC

Rocket: Long March 4B

Launch pad: Launch Complex 7

Location: Taiyuan Satellite Launch Center, People's Republic of China

...

Latest news about this satellite

There are no fresh news available about this satellite. Check back as we update our databases every day.


Newsletter sign-up

Weekly statistics, charts and insights to help you stay on top of the space industry.